Time,TemperatureF,DewpointF,PressureIn,WindDirection,WindDirectionDegrees,WindSpeedMPH,WindSpeedGustMPH,Humidity,HourlyPrecipIn,Conditions,Clouds,dailyrainin,SoftwareType,DateUTC
2013-06-28 00:00:00,57.0,55.9,30.05,WSW,252,0.0,4.0,96,0.00,,,0.01,meteohub,2013-06-28 07:00:00,
2013-06-28 00:05:00,57.0,55.9,30.05,WSW,252,0.0,4.0,96,0.00,,,0.00,meteohub,2013-06-28 07:05:00,
2013-06-28 00:10:00,56.8,55.8,30.05,WSW,252,0.0,0.0,96,0.00,,,0.00,meteohub,2013-06-28 07:10:00,
2013-06-28 00:15:00,56.8,55.8,30.05,WSW,252,0.0,0.0,96,0.00,,,0.00,meteohub,2013-06-28 07:15:00,
2013-06-28 00:20:00,56.8,55.8,30.05,WSW,252,0.0,2.0,96,0.00,,,0.00,meteohub,2013-06-28 07:20:00,
2013-06-28 00:25:00,56.8,55.8,30.06,WSW,252,0.0,2.0,96,0.00,,,0.00,meteohub,2013-06-28 07:25:00,
2013-06-28 00:30:00,56.8,55.8,30.05,WSW,252,0.0,2.0,96,0.00,,,0.00,meteohub,2013-06-28 07:30:00,
2013-06-28 00:35:00,56.8,55.8,30.05,WSW,252,0.0,1.0,96,0.00,,,0.00,meteohub,2013-06-28 07:35:00,
2013-06-28 00:40:00,56.8,55.8,30.05,WSW,252,0.0,1.0,96,0.00,,,0.00,meteohub,2013-06-28 07:40:00,
2013-06-28 00:45:00,56.8,55.8,30.05,WSW,252,0.0,1.0,96,0.00,,,0.00,meteohub,2013-06-28 07:45:00,
2013-06-28 00:50:00,56.8,55.8,30.05,WSW,252,0.0,4.0,96,0.00,,,0.00,meteohub,2013-06-28 07:50:00,
2013-06-28 00:55:00,56.8,55.8,30.05,WSW,252,0.0,4.0,96,0.00,,,0.00,meteohub,2013-06-28 07:55:00,
2013-06-28 01:00:00,56.8,55.8,30.05,WSW,252,0.0,5.0,96,0.00,,,0.00,meteohub,2013-06-28 08:00:00,
2013-06-28 01:05:00,56.8,55.8,30.05,WSW,252,3.0,5.0,96,0.00,,,0.00,meteohub,2013-06-28 08:05:00,
2013-06-28 01:10:00,56.8,55.8,30.05,WSW,252,2.0,5.0,96,0.00,,,0.00,meteohub,2013-06-28 08:10:00,
2013-06-28 01:15:00,56.8,55.8,30.05,WSW,252,0.0,4.0,96,0.00,,,0.00,meteohub,2013-06-28 08:15:00,
2013-06-28 01:20:00,56.8,55.8,30.05,WSW,252,0.0,4.0,96,0.00,,,0.00,meteohub,2013-06-28 08:20:00,
2013-06-28 01:25:00,56.8,55.8,30.05,WSW,252,0.0,4.0,96,0.00,,,0.00,meteohub,2013-06-28 08:25:00,
2013-06-28 01:31:00,56.8,55.8,30.05,WSW,252,3.0,3.0,96,0.00,,,0.00,meteohub,2013-06-28 08:31:00,
2013-06-28 01:36:00,56.8,55.8,30.05,WSW,252,0.0,4.0,96,0.00,,,0.00,meteohub,2013-06-28 08:36:00,
2013-06-28 01:41:00,56.8,55.8,30.05,WSW,252,2.0,5.0,96,0.00,,,0.00,meteohub,2013-06-28 08:41:00,
2013-06-28 01:46:00,56.7,55.6,30.05,WSW,252,0.0,5.0,96,0.00,,,0.00,meteohub,2013-06-28 08:46:00,
2013-06-28 01:51:00,56.7,55.6,30.04,WSW,252,0.0,5.0,96,0.00,,,0.00,meteohub,2013-06-28 08:51:00,
2013-06-28 01:56:00,56.7,55.6,30.04,WSW,252,2.0,5.0,96,0.00,,,0.00,meteohub,2013-06-28 08:56:00,
2013-06-28 02:01:00,56.7,55.6,30.04,WSW,252,0.0,5.0,96,0.00,,,0.00,meteohub,2013-06-28 09:01:00,
2013-06-28 02:06:00,56.8,55.8,30.04,WSW,251,0.0,5.0,96,0.00,,,0.00,meteohub,2013-06-28 09:06:00,
2013-06-28 02:11:00,56.8,55.8,30.04,WSW,252,0.0,5.0,96,0.00,,,0.00,meteohub,2013-06-28 09:11:00,
2013-06-28 02:16:00,56.8,55.8,30.04,WSW,251,0.0,3.0,96,0.00,,,0.00,meteohub,2013-06-28 09:16:00,
2013-06-28 02:21:00,56.8,55.8,30.04,WSW,252,0.0,5.0,96,0.00,,,0.00,meteohub,2013-06-28 09:21:00,
2013-06-28 02:26:00,56.7,55.6,30.04,WSW,252,0.0,5.0,96,0.00,,,0.00,meteohub,2013-06-28 09:26:00,
2013-06-28 02:31:00,56.7,55.6,30.04,WSW,251,0.0,4.0,96,0.00,,,0.00,meteohub,2013-06-28 09:31:00,
2013-06-28 02:36:00,56.7,55.6,30.04,WSW,252,0.0,1.0,96,0.00,,,0.00,meteohub,2013-06-28 09:36:00,
2013-06-28 02:41:00,56.7,55.6,30.04,WSW,251,3.0,3.0,96,0.00,,,0.00,meteohub,2013-06-28 09:41:00,
2013-06-28 02:46:00,56.7,55.6,30.04,WSW,251,0.0,6.0,96,0.00,,,0.00,meteohub,2013-06-28 09:46:00,
2013-06-28 02:51:00,56.7,55.6,30.04,WSW,252,0.0,6.0,96,0.00,,,0.00,meteohub,2013-06-28 09:51:00,
2013-06-28 02:56:00,56.7,55.6,30.04,WSW,251,0.0,6.0,96,0.00,,,0.00,meteohub,2013-06-28 09:56:00,
2013-06-28 03:01:00,56.8,55.8,30.03,WSW,252,0.0,4.0,96,0.00,,,0.00,meteohub,2013-06-28 10:01:00,
2013-06-28 03:06:00,56.7,55.6,30.03,WSW,251,3.0,4.0,96,0.00,,,0.00,meteohub,2013-06-28 10:06:00,
2013-06-28 03:11:00,56.8,55.8,30.03,WSW,252,0.0,4.0,96,0.00,,,0.00,meteohub,2013-06-28 10:11:00,
2013-06-28 03:16:00,56.8,55.8,30.03,WSW,251,0.0,6.0,96,0.00,,,0.00,meteohub,2013-06-28 10:16:00,
2013-06-28 03:21:00,56.8,55.8,30.03,WSW,251,0.0,6.0,96,0.00,,,0.00,meteohub,2013-06-28 10:21:00,
2013-06-28 03:26:00,56.8,55.8,30.03,WSW,250,4.0,6.0,96,0.00,,,0.00,meteohub,2013-06-28 10:26:00,
2013-06-28 03:32:00,56.8,55.8,30.03,WSW,251,3.0,6.0,96,0.00,,,0.00,meteohub,2013-06-28 10:32:00,
2013-06-28 03:37:00,56.8,55.8,30.03,West,259,1.0,7.0,96,0.00,,,0.00,meteohub,2013-06-28 10:37:00,
2013-06-28 03:42:00,56.7,55.6,30.02,West,259,0.0,7.0,96,0.00,,,0.00,meteohub,2013-06-28 10:42:00,
2013-06-28 03:47:00,56.7,55.6,30.03,West,259,0.0,7.0,96,0.00,,,0.00,meteohub,2013-06-28 10:47:00,
2013-06-28 03:52:00,56.7,55.6,30.02,West,259,0.0,7.0,96,0.00,,,0.00,meteohub,2013-06-28 10:52:00,
2013-06-28 03:57:00,56.7,55.6,30.02,West,259,3.0,5.0,96,0.00,,,0.00,meteohub,2013-06-28 10:57:00,
2013-06-28 04:02:00,56.7,55.6,30.02,WSW,256,0.0,5.0,96,0.00,,,0.00,meteohub,2013-06-28 11:02:00,
2013-06-28 04:07:00,56.5,55.4,30.02,WSW,256,0.0,5.0,96,0.00,,,0.00,meteohub,2013-06-28 11:07:00,
2013-06-28 04:12:00,56.7,55.6,30.02,WSW,250,0.0,5.0,96,0.00,,,0.00,meteohub,2013-06-28 11:12:00,
2013-06-28 04:17:00,56.7,55.6,30.02,WSW,250,0.0,5.0,96,0.00,,,0.00,meteohub,2013-06-28 11:17:00,
2013-06-28 04:22:00,56.5,55.4,30.01,WSW,250,0.0,5.0,96,0.00,,,0.00,meteohub,2013-06-28 11:22:00,
2013-06-28 04:27:00,56.5,55.4,30.01,WSW,250,0.0,5.0,96,0.00,,,0.00,meteohub,2013-06-28 11:27:00,
2013-06-28 04:32:00,56.5,55.6,30.01,WSW,250,0.0,5.0,97,0.00,,,0.00,meteohub,2013-06-28 11:32:00,
2013-06-28 04:37:00,56.5,55.6,30.01,WSW,250,2.0,5.0,97,0.00,,,0.00,meteohub,2013-06-28 11:37:00,
2013-06-28 04:42:00,56.5,55.6,30.01,WSW,250,1.0,4.0,97,0.00,,,0.00,meteohub,2013-06-28 11:42:00,
2013-06-28 04:47:00,56.3,55.4,30.01,WSW,250,0.0,5.0,97,0.00,,,0.00,meteohub,2013-06-28 11:47:00,
2013-06-28 04:52:00,56.3,55.4,30.01,WSW,248,0.0,5.0,97,0.00,,,0.00,meteohub,2013-06-28 11:52:00,
2013-06-28 04:57:00,56.1,55.2,30.01,WSW,248,0.0,7.0,97,0.00,,,0.00,meteohub,2013-06-28 11:57:00,
2013-06-28 05:02:00,56.1,55.2,30.01,WSW,248,0.0,7.0,97,0.00,,,0.00,meteohub,2013-06-28 12:02:00,
2013-06-28 05:07:00,56.1,55.2,30.01,WSW,248,0.0,7.0,97,0.00,,,0.00,meteohub,2013-06-28 12:07:00,
2013-06-28 05:12:00,56.1,55.2,30.01,WSW,248,0.0,4.0,97,0.00,,,0.00,meteohub,2013-06-28 12:12:00,
2013-06-28 05:17:00,56.1,55.2,30.01,WSW,248,0.0,4.0,97,0.00,,,0.00,meteohub,2013-06-28 12:17:00,
2013-06-28 05:22:00,55.9,55.0,30.01,WSW,248,0.0,3.0,97,0.00,,,0.00,meteohub,2013-06-28 12:22:00,
2013-06-28 05:27:00,55.9,55.0,30.01,WSW,248,0.0,1.0,97,0.00,,,0.00,meteohub,2013-06-28 12:27:00,
2013-06-28 05:32:00,55.9,55.0,30.01,WSW,248,0.0,0.0,97,0.00,,,0.00,meteohub,2013-06-28 12:32:00,
2013-06-28 05:37:00,55.8,54.9,30.01,WSW,248,0.0,1.0,97,0.00,,,0.00,meteohub,2013-06-28 12:37:00,
2013-06-28 05:42:00,55.8,54.9,30.01,WSW,248,0.0,1.0,97,0.00,,,0.00,meteohub,2013-06-28 12:42:00,
2013-06-28 05:47:00,55.6,54.7,30.01,WSW,248,0.0,1.0,97,0.00,,,0.00,meteohub,2013-06-28 12:47:00,
2013-06-28 05:52:00,55.6,54.7,30.01,WSW,248,0.0,0.0,97,0.00,,,0.00,meteohub,2013-06-28 12:52:00,
2013-06-28 05:57:00,55.4,54.5,30.01,WSW,248,0.0,0.0,97,0.00,,,0.00,meteohub,2013-06-28 12:57:00,
2013-06-28 06:02:00,55.4,54.5,30.01,WSW,248,0.0,0.0,97,0.00,,,0.00,meteohub,2013-06-28 13:02:00,
2013-06-28 06:07:00,55.4,54.5,30.01,WSW,248,0.0,0.0,97,0.00,,,0.00,meteohub,2013-06-28 13:07:00,
2013-06-28 06:12:00,55.4,54.5,30.01,WSW,248,0.0,0.0,97,0.00,,,0.00,meteohub,2013-06-28 13:12:00,
2013-06-28 06:17:00,55.4,54.5,30.01,WSW,248,0.0,0.0,97,0.00,,,0.00,meteohub,2013-06-28 13:17:00,
2013-06-28 06:22:00,55.2,54.3,30.01,WSW,248,0.0,0.0,97,0.00,,,0.00,meteohub,2013-06-28 13:22:00,
2013-06-28 06:27:00,55.2,54.3,30.01,WSW,248,0.0,0.0,97,0.00,,,0.00,meteohub,2013-06-28 13:27:00,
2013-06-28 06:32:00,55.6,54.7,30.01,WSW,248,0.0,0.0,97,0.00,,,0.00,meteohub,2013-06-28 13:32:00,
2013-06-28 06:37:00,55.6,54.7,30.01,WSW,248,0.0,0.0,97,0.00,,,0.00,meteohub,2013-06-28 13:37:00,
2013-06-28 06:42:00,55.6,54.7,30.01,WSW,248,0.0,0.0,97,0.00,,,0.00,meteohub,2013-06-28 13:42:00,
2013-06-28 06:47:00,55.6,54.7,30.01,WSW,248,0.0,0.0,97,0.00,,,0.00,meteohub,2013-06-28 13:47:00,
2013-06-28 06:52:00,55.6,54.7,30.01,WSW,248,0.0,0.0,97,0.00,,,0.00,meteohub,2013-06-28 13:52:00,
2013-06-28 06:57:00,55.8,54.9,30.01,WSW,248,0.0,0.0,97,0.00,,,0.00,meteohub,2013-06-28 13:57:00,
2013-06-28 07:02:00,55.8,54.9,30.02,WSW,248,0.0,0.0,97,0.00,,,0.00,meteohub,2013-06-28 14:02:00,
2013-06-28 07:07:00,55.8,54.9,30.02,WSW,248,0.0,0.0,97,0.00,,,0.00,meteohub,2013-06-28 14:07:00,
2013-06-28 07:12:00,55.9,55.0,30.02,WSW,248,0.0,0.0,97,0.00,,,0.00,meteohub,2013-06-28 14:12:00,
2013-06-28 07:17:00,56.1,55.6,30.02,WSW,248,0.0,0.0,98,0.00,,,0.00,meteohub,2013-06-28 14:17:00,
2013-06-28 07:22:00,56.3,55.4,30.02,WSW,248,0.0,0.0,97,0.00,,,0.00,meteohub,2013-06-28 14:22:00,
2013-06-28 07:27:00,56.3,55.4,30.02,WSW,248,0.0,0.0,97,0.00,,,0.00,meteohub,2013-06-28 14:27:00,
2013-06-28 07:32:00,56.3,55.4,30.02,WSW,248,0.0,0.0,97,0.00,,,0.00,meteohub,2013-06-28 14:32:00,
2013-06-28 07:37:00,56.3,55.4,30.02,WSW,248,0.0,0.0,97,0.00,,,0.00,meteohub,2013-06-28 14:37:00,
2013-06-28 07:42:00,56.5,55.6,30.02,WSW,248,0.0,0.0,97,0.00,,,0.00,meteohub,2013-06-28 14:42:00,
2013-06-28 07:47:00,56.8,56.3,30.02,WSW,248,0.0,0.0,98,0.00,,,0.00,meteohub,2013-06-28 14:47:00,
2013-06-28 07:52:00,57.2,56.7,30.02,WSW,248,0.0,0.0,98,0.00,,,0.00,meteohub,2013-06-28 14:52:00,
2013-06-28 07:57:00,57.7,57.2,30.02,WSW,248,0.0,0.0,98,0.00,,,0.00,meteohub,2013-06-28 14:57:00,
2013-06-28 08:02:00,58.3,57.7,30.02,WSW,248,0.0,0.0,98,0.00,,,0.00,meteohub,2013-06-28 15:02:00,
2013-06-28 08:07:00,58.5,57.9,30.02,WSW,248,0.0,0.0,98,0.00,,,0.00,meteohub,2013-06-28 15:07:00,
2013-06-28 08:12:00,58.6,58.1,30.02,WSW,248,0.0,1.0,98,0.00,,,0.00,meteohub,2013-06-28 15:12:00,
2013-06-28 08:17:00,59.0,58.5,30.02,WSW,248,0.0,1.0,98,0.00,,,0.00,meteohub,2013-06-28 15:17:00,
2013-06-28 08:22:00,59.4,58.8,30.02,WSW,248,0.0,1.0,98,0.00,,,0.00,meteohub,2013-06-28 15:22:00,
2013-06-28 08:27:00,59.7,59.2,30.02,WSW,248,0.0,0.0,98,0.00,,,0.00,meteohub,2013-06-28 15:27:00,
2013-06-28 08:32:00,60.3,59.7,30.02,WSW,248,0.0,0.0,98,0.00,,,0.00,meteohub,2013-06-28 15:32:00,
2013-06-28 08:37:00,61.2,60.6,30.02,WSW,248,0.0,1.0,98,0.00,,,0.00,meteohub,2013-06-28 15:37:00,
2013-06-28 08:42:00,61.9,61.0,30.02,WSW,248,0.0,1.0,97,0.00,,,0.00,meteohub,2013-06-28 15:42:00,
2013-06-28 08:47:00,62.4,61.0,30.02,WSW,248,0.0,0.0,95,0.00,,,0.00,meteohub,2013-06-28 15:47:00,
2013-06-28 08:52:00,63.3,61.0,30.02,WSW,249,0.0,0.0,92,0.00,,,0.00,meteohub,2013-06-28 15:52:00,
2013-06-28 08:57:00,63.7,60.1,30.02,WSW,249,2.0,2.0,88,0.00,,,0.00,meteohub,2013-06-28 15:57:00,
2013-06-28 09:02:00,63.9,59.2,30.03,WSW,249,0.0,5.0,85,0.00,,,0.00,meteohub,2013-06-28 16:02:00,
2013-06-28 09:07:00,63.9,59.0,30.03,WSW,249,0.0,5.0,84,0.00,,,0.00,meteohub,2013-06-28 16:07:00,
2013-06-28 09:12:00,63.7,58.8,30.02,WSW,248,0.0,5.0,84,0.00,,,0.00,meteohub,2013-06-28 16:12:00,
2013-06-28 09:17:00,63.5,58.3,30.02,WSW,248,2.0,3.0,83,0.00,,,0.00,meteohub,2013-06-28 16:17:00,
2013-06-28 09:22:00,63.0,58.1,30.02,WSW,248,0.0,3.0,84,0.00,,,0.00,meteohub,2013-06-28 16:22:00,
2013-06-28 09:27:00,62.8,57.9,30.02,WSW,249,0.0,3.0,84,0.00,,,0.00,meteohub,2013-06-28 16:27:00,
2013-06-28 09:32:00,63.0,58.1,30.02,WSW,249,0.0,3.0,84,0.00,,,0.00,meteohub,2013-06-28 16:32:00,
2013-06-28 09:37:00,63.1,58.3,30.02,WSW,248,0.0,3.0,84,0.00,,,0.00,meteohub,2013-06-28 16:37:00,
2013-06-28 09:42:00,63.5,58.3,30.02,WSW,248,0.0,2.0,83,0.00,,,0.00,meteohub,2013-06-28 16:42:00,
2013-06-28 09:47:00,63.7,58.1,30.02,WSW,248,3.0,3.0,82,0.00,,,0.00,meteohub,2013-06-28 16:47:00,
2013-06-28 09:52:00,63.7,58.1,30.02,WSW,248,1.0,3.0,82,0.00,,,0.00,meteohub,2013-06-28 16:52:00,
2013-06-28 09:57:00,63.1,57.6,30.02,WSW,248,0.0,3.0,82,0.00,,,0.00,meteohub,2013-06-28 16:57:00,
2013-06-28 10:02:00,62.8,57.6,30.02,WSW,248,0.0,3.0,83,0.00,,,0.00,meteohub,2013-06-28 17:02:00,
2013-06-28 10:07:00,62.8,57.6,30.02,WSW,248,0.0,4.0,83,0.00,,,0.00,meteohub,2013-06-28 17:07:00,
2013-06-28 10:12:00,62.8,57.6,30.02,WSW,248,0.0,5.0,83,0.00,,,0.00,meteohub,2013-06-28 17:12:00,
2013-06-28 10:17:00,62.1,56.8,30.02,WSW,248,3.0,5.0,83,0.00,,,0.00,meteohub,2013-06-28 17:17:00,
2013-06-28 10:22:00,61.3,56.8,30.02,WSW,248,0.0,6.0,85,0.00,,,0.00,meteohub,2013-06-28 17:22:00,
2013-06-28 10:27:00,61.5,57.4,30.02,WSW,248,0.0,6.0,86,0.00,,,0.00,meteohub,2013-06-28 17:27:00,
2013-06-28 10:32:00,62.2,57.7,30.02,WSW,248,0.0,6.0,85,0.00,,,0.00,meteohub,2013-06-28 17:32:00,
2013-06-28 10:37:00,63.0,57.7,30.02,WSW,248,0.0,4.0,83,0.00,,,0.00,meteohub,2013-06-28 17:37:00,
2013-06-28 10:42:00,63.3,57.7,30.02,WSW,248,5.0,5.0,82,0.00,,,0.00,meteohub,2013-06-28 17:42:00,
2013-06-28 10:47:00,63.3,57.4,30.02,WSW,248,0.0,7.0,81,0.00,,,0.00,meteohub,2013-06-28 17:47:00,
2013-06-28 10:52:00,63.3,57.7,30.02,WSW,248,2.0,7.0,82,0.00,,,0.00,meteohub,2013-06-28 17:52:00,
2013-06-28 10:57:00,63.9,57.9,30.02,WSW,248,1.0,7.0,81,0.00,,,0.00,meteohub,2013-06-28 17:57:00,
2013-06-28 11:02:00,64.2,57.9,30.02,WSW,248,0.0,5.0,80,0.00,,,0.00,meteohub,2013-06-28 18:02:00,
2013-06-28 11:07:00,64.2,57.9,30.03,West,264,1.0,6.0,80,0.00,,,0.00,meteohub,2013-06-28 18:07:00,
2013-06-28 11:12:00,64.8,58.5,30.03,West,259,0.0,7.0,80,0.00,,,0.00,meteohub,2013-06-28 18:12:00,
2013-06-28 11:17:00,65.3,58.3,30.02,WSW,254,0.0,7.0,78,0.00,,,0.00,meteohub,2013-06-28 18:17:00,
2013-06-28 11:22:00,64.6,58.3,30.02,West,262,0.0,6.0,80,0.00,,,0.00,meteohub,2013-06-28 18:22:00,
2013-06-28 11:27:00,64.6,57.9,30.03,West,274,5.0,7.0,79,0.00,,,0.00,meteohub,2013-06-28 18:27:00,
2013-06-28 11:32:00,63.9,57.6,30.03,WSW,252,5.0,8.0,80,0.00,,,0.00,meteohub,2013-06-28 18:32:00,
2013-06-28 11:37:00,63.1,57.2,30.03,WSW,250,0.0,8.0,81,0.00,,,0.00,meteohub,2013-06-28 18:37:00,
2013-06-28 11:42:00,62.4,56.5,30.03,West,271,6.0,9.0,81,0.00,,,0.00,meteohub,2013-06-28 18:42:00,
2013-06-28 11:47:00,62.4,56.8,30.03,WSW,248,7.0,9.0,82,0.00,,,0.00,meteohub,2013-06-28 18:47:00,
2013-06-28 11:52:00,62.1,56.8,30.03,West,264,5.0,9.0,83,0.00,,,0.00,meteohub,2013-06-28 18:52:00,
2013-06-28 11:57:00,62.1,57.2,30.03,SW,220,3.0,8.0,84,0.00,,,0.00,meteohub,2013-06-28 18:57:00,
2013-06-28 12:02:00,61.9,56.7,30.03,West,264,1.0,8.0,83,0.00,,,0.00,meteohub,2013-06-28 19:02:00,
2013-06-28 12:07:00,61.3,56.1,30.03,West,269,4.0,9.0,83,0.00,,,0.00,meteohub,2013-06-28 19:07:00,
2013-06-28 12:12:00,61.0,56.5,30.03,WSW,250,8.0,9.0,85,0.00,,,0.00,meteohub,2013-06-28 19:12:00,
2013-06-28 12:17:00,61.2,56.7,30.03,West,272,3.0,10.0,85,0.00,,,0.00,meteohub,2013-06-28 19:17:00,
2013-06-28 12:22:00,61.5,56.7,30.03,West,271,1.0,10.0,84,0.00,,,0.00,meteohub,2013-06-28 19:22:00,
2013-06-28 12:27:00,62.1,56.8,30.03,WSW,255,0.0,10.0,83,0.00,,,0.00,meteohub,2013-06-28 19:27:00,
2013-06-28 12:32:00,61.7,56.5,30.02,West,271,7.0,10.0,83,0.00,,,0.00,meteohub,2013-06-28 19:32:00,
2013-06-28 12:37:00,61.3,56.5,30.02,WSW,252,3.0,10.0,84,0.00,,,0.00,meteohub,2013-06-28 19:37:00,
2013-06-28 12:42:00,61.7,57.2,30.03,WSW,255,3.0,10.0,85,0.00,,,0.00,meteohub,2013-06-28 19:42:00,
2013-06-28 12:47:00,61.7,56.8,30.03,West,259,6.0,10.0,84,0.00,,,0.00,meteohub,2013-06-28 19:47:00,
2013-06-28 12:52:00,61.3,56.5,30.02,NW,316,6.0,11.0,84,0.00,,,0.00,meteohub,2013-06-28 19:52:00,
2013-06-28 12:57:00,60.4,56.3,30.03,WSW,253,9.0,11.0,86,0.00,,,0.00,meteohub,2013-06-28 19:57:00,
2013-06-28 13:02:00,59.7,55.8,30.03,WSW,248,7.0,13.0,87,0.00,,,0.00,meteohub,2013-06-28 20:02:00,
2013-06-28 13:08:00,60.3,56.3,30.03,West,274,4.0,13.0,87,0.00,,,0.00,meteohub,2013-06-28 20:08:00,
2013-06-28 13:13:00,60.3,56.3,30.03,WNW,285,11.0,13.0,87,0.00,,,0.00,meteohub,2013-06-28 20:13:00,
2013-06-28 13:18:00,59.9,56.3,30.03,SW,234,7.0,12.0,88,0.00,,,0.00,meteohub,2013-06-28 20:18:00,
2013-06-28 13:23:00,59.4,56.1,30.03,West,264,8.0,12.0,89,0.00,,,0.00,meteohub,2013-06-28 20:23:00,
2013-06-28 13:28:00,59.9,56.3,30.03,West,271,3.0,13.0,88,0.00,,,0.00,meteohub,2013-06-28 20:28:00,
2013-06-28 13:33:00,59.9,55.9,30.03,WSW,243,8.0,14.0,87,0.00,,,0.00,meteohub,2013-06-28 20:33:00,
2013-06-28 13:38:00,59.5,56.3,30.02,WSW,243,13.0,14.0,89,0.00,,,0.00,meteohub,2013-06-28 20:38:00,
2013-06-28 13:43:00,59.4,56.5,30.02,WSW,258,9.0,14.0,90,0.00,,,0.00,meteohub,2013-06-28 20:43:00,
2013-06-28 13:48:00,59.7,56.5,30.02,SW,229,5.0,13.0,89,0.00,,,0.00,meteohub,2013-06-28 20:48:00,
2013-06-28 13:53:00,60.3,56.3,30.02,WSW,252,6.0,13.0,87,0.00,,,0.00,meteohub,2013-06-28 20:53:00,
2013-06-28 13:58:00,60.4,56.8,30.02,WSW,244,7.0,12.0,88,0.00,,,0.00,meteohub,2013-06-28 20:58:00,
2013-06-28 14:03:00,60.4,56.5,30.02,West,281,5.0,12.0,87,0.00,,,0.00,meteohub,2013-06-28 21:03:00,
2013-06-28 14:08:00,60.4,56.8,30.02,WSW,239,10.0,12.0,88,0.00,,,0.00,meteohub,2013-06-28 21:08:00,
2013-06-28 14:13:00,60.1,56.5,30.01,WSW,256,0.0,12.0,88,0.00,,,0.00,meteohub,2013-06-28 21:13:00,
2013-06-28 14:18:00,60.4,57.2,30.01,West,276,8.0,12.0,89,0.00,,,0.00,meteohub,2013-06-28 21:18:00,
2013-06-28 14:23:00,60.4,56.8,30.01,WSW,240,9.0,11.0,88,0.00,,,0.00,meteohub,2013-06-28 21:23:00,
2013-06-28 14:29:00,60.6,57.4,30.01,West,264,6.0,10.0,89,0.00,,,0.00,meteohub,2013-06-28 21:29:00,
2013-06-28 14:34:00,61.3,57.7,30.01,West,259,2.0,10.0,88,0.00,,,0.00,meteohub,2013-06-28 21:34:00,
2013-06-28 14:39:00,61.5,57.6,30.01,WSW,250,6.0,9.0,87,0.00,,,0.00,meteohub,2013-06-28 21:39:00,
2013-06-28 14:44:00,61.9,57.9,30.00,West,273,1.0,9.0,87,0.00,,,0.00,meteohub,2013-06-28 21:44:00,
2013-06-28 14:49:00,62.1,57.6,30.00,WSW,249,8.0,9.0,85,0.00,,,0.00,meteohub,2013-06-28 21:49:00,
2013-06-28 14:54:00,61.9,57.6,30.00,WNW,285,5.0,9.0,86,0.00,,,0.00,meteohub,2013-06-28 21:54:00,
2013-06-28 14:59:00,61.9,57.6,30.00,WSW,251,7.0,9.0,86,0.00,,,0.00,meteohub,2013-06-28 21:59:00,
2013-06-28 15:04:00,61.9,57.6,30.00,WSW,254,1.0,10.0,86,0.00,,,0.00,meteohub,2013-06-28 22:04:00,
2013-06-28 15:09:00,62.4,58.1,29.99,WSW,244,8.0,10.0,86,0.00,,,0.00,meteohub,2013-06-28 22:09:00,
2013-06-28 15:14:00,61.9,57.4,29.99,WSW,249,4.0,11.0,85,0.00,,,0.00,meteohub,2013-06-28 22:14:00,
2013-06-28 15:19:00,62.1,57.7,29.99,West,281,0.0,12.0,86,0.00,,,0.00,meteohub,2013-06-28 22:19:00,
2013-06-28 15:24:00,62.2,57.9,29.99,WNW,290,0.0,12.0,86,0.00,,,0.00,meteohub,2013-06-28 22:24:00,
2013-06-28 15:29:00,62.2,57.7,29.99,WSW,243,8.0,12.0,85,0.00,,,0.00,meteohub,2013-06-28 22:29:00,
2013-06-28 15:34:00,61.9,57.6,29.99,West,264,3.0,11.0,86,0.00,,,0.00,meteohub,2013-06-28 22:34:00,
2013-06-28 15:39:00,61.3,57.4,29.99,West,259,4.0,11.0,87,0.00,,,0.00,meteohub,2013-06-28 22:39:00,
2013-06-28 15:44:00,61.5,57.9,29.99,WSW,243,11.0,13.0,88,0.00,,,0.00,meteohub,2013-06-28 22:44:00,
2013-06-28 15:49:00,61.5,57.6,29.98,West,266,0.0,13.0,87,0.00,,,0.00,meteohub,2013-06-28 22:49:00,
2013-06-28 15:54:00,61.9,58.3,29.98,West,262,6.0,13.0,88,0.00,,,0.00,meteohub,2013-06-28 22:54:00,
2013-06-28 16:00:00,62.2,57.9,29.98,WSW,244,0.0,12.0,86,0.00,,,0.00,meteohub,2013-06-28 23:00:00,
2013-06-28 16:05:00,62.2,58.3,29.98,WSW,254,0.0,10.0,87,0.00,,,0.00,meteohub,2013-06-28 23:05:00,
2013-06-28 16:10:00,62.1,57.7,29.98,WNW,283,3.0,10.0,86,0.00,,,0.00,meteohub,2013-06-28 23:10:00,
2013-06-28 16:15:00,62.4,57.9,29.98,WSW,243,4.0,11.0,85,0.00,,,0.00,meteohub,2013-06-28 23:15:00,
2013-06-28 16:20:00,62.1,57.7,29.98,WSW,251,0.0,11.0,86,0.00,,,0.00,meteohub,2013-06-28 23:20:00,
2013-06-28 16:25:00,62.2,57.9,29.97,West,262,3.0,11.0,86,0.00,,,0.00,meteohub,2013-06-28 23:25:00,
2013-06-28 16:30:00,62.2,57.7,29.97,WSW,258,5.0,11.0,85,0.00,,,0.00,meteohub,2013-06-28 23:30:00,
2013-06-28 16:35:00,62.1,57.6,29.97,WNW,295,2.0,12.0,85,0.00,,,0.00,meteohub,2013-06-28 23:35:00,
2013-06-28 16:40:00,62.2,57.9,29.97,West,272,0.0,12.0,86,0.00,,,0.00,meteohub,2013-06-28 23:40:00,
2013-06-28 16:45:00,62.4,58.1,29.97,WSW,257,0.0,12.0,86,0.00,,,0.00,meteohub,2013-06-28 23:45:00,
2013-06-28 16:50:00,62.8,57.9,29.97,West,276,0.0,11.0,84,0.00,,,0.00,meteohub,2013-06-28 23:50:00,
2013-06-28 16:55:00,62.6,58.1,29.97,WSW,248,5.0,12.0,85,0.00,,,0.00,meteohub,2013-06-28 23:55:00,
2013-06-28 17:00:00,63.0,58.1,29.96,SW,228,8.0,12.0,84,0.00,,,0.00,meteohub,2013-06-29 00:00:00,
2013-06-28 17:05:00,62.4,57.6,29.96,WSW,255,9.0,12.0,84,0.00,,,0.00,meteohub,2013-06-29 00:05:00,
2013-06-28 17:10:00,62.2,57.7,29.96,West,281,5.0,11.0,85,0.00,,,0.00,meteohub,2013-06-29 00:10:00,
2013-06-28 17:15:00,62.2,57.7,29.96,WSW,248,5.0,11.0,85,0.00,,,0.00,meteohub,2013-06-29 00:15:00,
2013-06-28 17:20:00,62.1,57.6,29.96,WSW,248,4.0,10.0,85,0.00,,,0.00,meteohub,2013-06-29 00:20:00,
2013-06-28 17:25:00,62.1,57.7,29.96,SW,230,8.0,10.0,86,0.00,,,0.00,meteohub,2013-06-29 00:25:00,
2013-06-28 17:30:00,62.4,57.9,29.96,SW,225,5.0,12.0,85,0.00,,,0.00,meteohub,2013-06-29 00:30:00,
2013-06-28 17:35:00,63.0,58.1,29.96,WSW,245,1.0,12.0,84,0.00,,,0.00,meteohub,2013-06-29 00:35:00,
2013-06-28 17:40:00,63.0,58.1,29.96,West,264,6.0,12.0,84,0.00,,,0.00,meteohub,2013-06-29 00:40:00,
2013-06-28 17:45:00,62.8,57.9,29.96,West,260,9.0,11.0,84,0.00,,,0.00,meteohub,2013-06-29 00:45:00,
2013-06-28 17:51:00,63.0,58.1,29.96,WNW,288,4.0,11.0,84,0.00,,,0.00,meteohub,2013-06-29 00:51:00,
2013-06-28 17:56:00,63.0,58.1,29.96,West,277,3.0,11.0,84,0.00,,,0.00,meteohub,2013-06-29 00:56:00,
2013-06-28 18:01:00,62.8,57.6,29.96,West,269,4.0,11.0,83,0.00,,,0.00,meteohub,2013-06-29 01:01:00,
2013-06-28 18:06:00,62.4,57.6,29.96,West,262,0.0,11.0,84,0.00,,,0.00,meteohub,2013-06-29 01:06:00,
2013-06-28 18:11:00,62.8,57.9,29.96,West,261,0.0,11.0,84,0.00,,,0.00,meteohub,2013-06-29 01:11:00,
2013-06-28 18:16:00,62.8,57.9,29.95,West,260,1.0,12.0,84,0.00,,,0.00,meteohub,2013-06-29 01:16:00,
2013-06-28 18:21:00,62.8,57.6,29.95,West,273,7.0,12.0,83,0.00,,,0.00,meteohub,2013-06-29 01:21:00,
2013-06-28 18:26:00,62.8,57.6,29.95,West,276,6.0,12.0,83,0.00,,,0.00,meteohub,2013-06-29 01:26:00,
2013-06-28 18:31:00,62.4,57.2,29.95,West,267,0.0,12.0,83,0.00,,,0.00,meteohub,2013-06-29 01:31:00,
2013-06-28 18:36:00,62.2,57.4,29.95,West,267,4.0,11.0,84,0.00,,,0.00,meteohub,2013-06-29 01:36:00,
2013-06-28 18:41:00,62.6,57.7,29.95,West,277,4.0,11.0,84,0.00,,,0.00,meteohub,2013-06-29 01:41:00,
2013-06-28 18:46:00,62.4,57.9,29.95,WSW,241,9.0,11.0,85,0.00,,,0.00,meteohub,2013-06-29 01:46:00,
2013-06-28 18:51:00,62.2,57.4,29.95,West,278,11.0,11.0,84,0.00,,,0.00,meteohub,2013-06-29 01:51:00,
2013-06-28 18:56:00,62.4,57.2,29.95,WSW,250,10.0,11.0,83,0.00,,,0.00,meteohub,2013-06-29 01:56:00,
2013-06-28 19:01:00,62.1,57.2,29.95,WSW,250,7.0,13.0,84,0.00,,,0.00,meteohub,2013-06-29 02:01:00,
2013-06-28 19:06:00,61.9,57.0,29.95,West,262,9.0,13.0,84,0.00,,,0.00,meteohub,2013-06-29 02:06:00,
2013-06-28 19:11:00,61.9,57.0,29.95,West,271,6.0,13.0,84,0.00,,,0.00,meteohub,2013-06-29 02:11:00,
2013-06-28 19:17:00,61.9,57.4,29.94,West,261,2.0,11.0,85,0.00,,,0.00,meteohub,2013-06-29 02:17:00,
2013-06-28 19:22:00,61.7,57.2,29.95,WSW,257,3.0,11.0,85,0.00,,,0.00,meteohub,2013-06-29 02:22:00,
2013-06-28 19:27:00,61.3,56.8,29.95,WSW,252,6.0,10.0,85,0.00,,,0.00,meteohub,2013-06-29 02:27:00,
2013-06-28 19:32:00,61.0,56.8,29.95,West,280,4.0,12.0,86,0.00,,,0.00,meteohub,2013-06-29 02:32:00,
2013-06-28 19:37:00,61.0,56.8,29.94,West,270,8.0,12.0,86,0.00,,,0.00,meteohub,2013-06-29 02:37:00,
2013-06-28 19:42:00,61.0,56.8,29.95,West,261,6.0,12.0,86,0.00,,,0.00,meteohub,2013-06-29 02:42:00,
2013-06-28 19:47:00,61.0,57.0,29.95,WSW,240,2.0,11.0,87,0.00,,,0.00,meteohub,2013-06-29 02:47:00,
2013-06-28 19:52:00,60.8,56.8,29.95,West,274,5.0,11.0,87,0.00,,,0.00,meteohub,2013-06-29 02:52:00,
2013-06-28 19:57:00,60.6,56.7,29.95,West,262,5.0,11.0,87,0.00,,,0.00,meteohub,2013-06-29 02:57:00,
2013-06-28 20:02:00,60.6,56.7,29.95,WSW,249,3.0,12.0,87,0.00,,,0.00,meteohub,2013-06-29 03:02:00,
2013-06-28 20:07:00,60.6,56.7,29.95,WSW,249,8.0,12.0,87,0.00,,,0.00,meteohub,2013-06-29 03:07:00,
2013-06-28 20:12:00,60.4,56.5,29.95,West,263,9.0,12.0,87,0.00,,,0.00,meteohub,2013-06-29 03:12:00,
2013-06-28 20:17:00,60.4,56.8,29.95,West,278,2.0,12.0,88,0.00,,,0.00,meteohub,2013-06-29 03:17:00,
2013-06-28 20:22:00,60.4,56.8,29.95,West,265,2.0,11.0,88,0.00,,,0.00,meteohub,2013-06-29 03:22:00,
2013-06-28 20:27:00,60.3,56.7,29.95,West,270,1.0,11.0,88,0.00,,,0.00,meteohub,2013-06-29 03:27:00,
2013-06-28 20:32:00,60.3,56.7,29.95,WSW,245,9.0,9.0,88,0.00,,,0.00,meteohub,2013-06-29 03:32:00,
2013-06-28 20:37:00,60.1,56.5,29.95,WSW,255,1.0,9.0,88,0.00,,,0.00,meteohub,2013-06-29 03:37:00,
2013-06-28 20:42:00,59.9,56.7,29.95,West,263,3.0,10.0,89,0.00,,,0.00,meteohub,2013-06-29 03:42:00,
2013-06-28 20:47:00,59.7,56.5,29.95,WSW,245,9.0,10.0,89,0.00,,,0.00,meteohub,2013-06-29 03:47:00,
2013-06-28 20:52:00,59.7,56.5,29.95,West,266,0.0,10.0,89,0.00,,,0.00,meteohub,2013-06-29 03:52:00,
2013-06-28 20:57:00,59.7,56.5,29.95,West,276,5.0,9.0,89,0.00,,,0.00,meteohub,2013-06-29 03:57:00,
2013-06-28 21:01:00,59.5,56.7,29.94,WSW,251,0.0,9.0,90,0.00,,,0.00,meteohub,2013-06-29 04:01:00,
2013-06-28 21:02:00,59.5,56.7,29.94,West,262,2.0,9.0,90,0.00,,,0.00,meteohub,2013-06-29 04:02:00,
2013-06-28 21:05:00,59.7,56.8,29.95,WSW,251,5.0,8.0,90,0.00,,,0.00,meteohub,2013-06-29 04:05:00,
2013-06-28 21:10:00,59.5,56.3,29.95,WSW,240,5.0,8.0,89,0.00,,,0.00,meteohub,2013-06-29 04:10:00,
2013-06-28 21:15:00,59.5,56.7,29.95,WSW,240,7.0,7.0,90,0.00,,,0.00,meteohub,2013-06-29 04:15:00,
2013-06-28 21:20:00,59.5,56.3,29.95,WSW,257,5.0,8.0,89,0.00,,,0.00,meteohub,2013-06-29 04:20:00,
2013-06-28 21:25:00,59.7,56.8,29.95,WSW,249,0.0,8.0,90,0.00,,,0.00,meteohub,2013-06-29 04:25:00,
2013-06-28 21:31:00,59.7,56.5,29.95,WSW,258,0.0,8.0,89,0.00,,,0.00,meteohub,2013-06-29 04:31:00,
2013-06-28 21:36:00,59.5,56.3,29.95,West,274,0.0,8.0,89,0.00,,,0.00,meteohub,2013-06-29 04:36:00,
2013-06-28 21:41:00,59.7,56.5,29.96,West,263,0.0,8.0,89,0.00,,,0.00,meteohub,2013-06-29 04:41:00,
2013-06-28 21:46:00,59.7,56.5,29.96,West,267,4.0,8.0,89,0.00,,,0.00,meteohub,2013-06-29 04:46:00,
2013-06-28 21:51:00,59.7,56.5,29.96,WSW,252,2.0,7.0,89,0.00,,,0.00,meteohub,2013-06-29 04:51:00,
2013-06-28 21:56:00,59.7,56.5,29.96,WSW,251,4.0,8.0,89,0.00,,,0.00,meteohub,2013-06-29 04:56:00,
2013-06-28 22:01:00,59.7,56.5,29.96,WSW,254,4.0,8.0,89,0.00,,,0.00,meteohub,2013-06-29 05:01:00,
2013-06-28 22:06:00,59.7,56.5,29.96,WSW,237,6.0,8.0,89,0.00,,,0.00,meteohub,2013-06-29 05:06:00,
2013-06-28 22:11:00,59.5,55.9,29.96,WSW,243,7.0,8.0,88,0.00,,,0.00,meteohub,2013-06-29 05:11:00,
2013-06-28 22:16:00,59.5,56.3,29.96,WSW,252,3.0,9.0,89,0.00,,,0.00,meteohub,2013-06-29 05:16:00,
2013-06-28 22:21:00,59.5,56.3,29.96,WSW,253,0.0,9.0,89,0.00,,,0.00,meteohub,2013-06-29 05:21:00,
2013-06-28 22:26:00,59.5,55.9,29.96,SW,234,5.0,9.0,88,0.00,,,0.00,meteohub,2013-06-29 05:26:00,
2013-06-28 22:31:00,59.5,55.9,29.96,WSW,245,6.0,7.0,88,0.00,,,0.00,meteohub,2013-06-29 05:31:00,
2013-06-28 22:36:00,59.5,55.9,29.96,WSW,240,0.0,7.0,88,0.00,,,0.00,meteohub,2013-06-29 05:36:00,
2013-06-28 22:41:00,59.5,55.9,29.96,WSW,246,5.0,7.0,88,0.00,,,0.00,meteohub,2013-06-29 05:41:00,
2013-06-28 22:46:00,59.5,55.9,29.96,WSW,247,4.0,7.0,88,0.00,,,0.00,meteohub,2013-06-29 05:46:00,
2013-06-28 22:51:00,59.4,55.8,29.96,WSW,252,3.0,7.0,88,0.00,,,0.00,meteohub,2013-06-29 05:51:00,
2013-06-28 22:56:00,59.4,55.8,29.96,WSW,245,4.0,7.0,88,0.00,,,0.00,meteohub,2013-06-29 05:56:00,
2013-06-28 23:01:00,59.4,55.8,29.96,WSW,248,5.0,9.0,88,0.00,,,0.00,meteohub,2013-06-29 06:01:00,
2013-06-28 23:06:00,59.2,55.6,29.96,WSW,239,4.0,9.0,88,0.00,,,0.00,meteohub,2013-06-29 06:06:00,
2013-06-28 23:11:00,59.2,55.6,29.96,WSW,242,4.0,9.0,88,0.00,,,0.00,meteohub,2013-06-29 06:11:00,
2013-06-28 23:16:00,59.2,55.6,29.96,WSW,238,7.0,8.0,88,0.00,,,0.00,meteohub,2013-06-29 06:16:00,
2013-06-28 23:22:00,59.2,55.6,29.96,WSW,238,6.0,8.0,88,0.00,,,0.00,meteohub,2013-06-29 06:22:00,
2013-06-28 23:27:00,59.0,55.4,29.96,SW,236,0.0,8.0,88,0.00,,,0.00,meteohub,2013-06-29 06:27:00,
2013-06-28 23:32:00,58.8,55.2,29.96,SW,236,4.0,8.0,88,0.00,,,0.00,meteohub,2013-06-29 06:32:00,
2013-06-28 23:37:00,58.8,55.2,29.96,SW,228,6.0,8.0,88,0.00,,,0.00,meteohub,2013-06-29 06:37:00,
2013-06-28 23:42:00,58.8,55.6,29.96,SW,228,0.0,7.0,89,0.00,,,0.00,meteohub,2013-06-29 06:42:00,
2013-06-28 23:47:00,58.6,55.0,29.96,SW,229,0.0,7.0,88,0.00,,,0.00,meteohub,2013-06-29 06:47:00,
2013-06-28 23:52:00,58.6,55.0,29.96,SW,232,0.0,8.0,88,0.00,,,0.00,meteohub,2013-06-29 06:52:00,
2013-06-28 23:57:00,58.5,55.2,29.95,SW,232,4.0,8.0,89,0.00,,,0.00,meteohub,2013-06-29 06:57:00,